GW5579 Weather Reports


Display with metric or nautical units.
time (UTC)temp
F
wind
direction
speed
MPH
gust
MPH
rain 1hr
in
rain 24hr
in
rain mn
in
humidity
%
barometer
mb
20260906014154 54 186 1.0 2.0 0.00 0.01 0.01 95 1010.7
20260906013650 54 190 0.0 1.0 0.00 0.01 0.01 95 1010.7
20260906013145 54 169 0.0 1.0 0.00 0.01 0.01 95 1010.9
20260906012645 54 193 1.0 2.0 0.00 0.01 0.01 95 1010.8
20260906012145 54 165 1.0 1.0 0.00 0.01 0.01 95 1010.7
20260906011641 54 182 1.0 3.0 0.00 0.01 0.01 95 1010.8
20260906011136 54 159 0.0 1.0 0.00 0.01 0.01 95 1011.0
20260906010632 54 221 2.0 2.0 0.00 0.01 0.01 95 1010.8
20260906010128 54 141 0.0 2.0 0.00 0.01 0.01 95 1010.7
20260906005627 54 198 1.0 1.0 0.00 0.01 0.01 95 1010.7
20260906005127 54 168 2.0 4.0 0.00 0.01 0.01 95 1010.6
20260906004625 54 178 0.0 1.0 0.00 0.01 0.01 95 1010.6
20260906004120 53 170 0.0 1.0 0.00 0.01 0.01 95 1010.7
20260906003616 53 168 0.0 2.0 0.00 0.01 0.01 96 1010.7
20260906003112 53 188 0.0 2.0 0.00 0.01 0.01 96 1010.7
20260906002612 53 229 4.0 4.0 0.00 0.01 0.01 96 1010.7
20260906002107 53 209 4.0 6.0 0.00 0.01 0.01 96 1010.8
20260906001603 53 212 2.0 3.0 0.00 0.01 0.01 96 1010.7
20260906001102 53 182 2.0 7.0 0.00 0.01 0.01 96 1010.8
20260906000559 53 178 1.0 2.0 0.00 0.01 0.01 96 1010.7
20260906000053 53 177 1.0 2.0 0.05 0.01 0.01 97 1010.7
20260905235553 53 191 1.0 6.0 0.05 0.01 0.01 97 1010.6
20260905235048 52 176 0.0 6.0 0.00 0.00 0.00 97 1010.6
20260905234543 52 207 1.0 1.0 0.00 0.00 0.00 97 1010.6
20260905234039 52 167 2.0 2.0 0.00 0.00 0.00 97 1010.6
20260905233538 52 174 0.0 2.0 0.00 0.00 0.00 97 1010.7
20260905233038 52 173 0.0 3.0 0.00 0.00 0.00 97 1010.4
20260905232533 52 211 0.0 2.0 0.00 0.00 0.00 96 1010.6
20260905232029 52 182 0.0 3.0 0.00 0.00 0.00 96 1010.5
20260905231524 52 186 1.0 3.0 0.00 0.00 0.00 96 1010.5
20260905231021 52 178 1.0 3.0 0.00 0.00 0.00 96 1010.4
20260905230520 52 261 5.0 7.0 0.00 0.00 0.00 97 1010.4
20260905230018 52 180 1.0 4.0 0.00 0.00 0.00 96 1010.5
20260905225513 52 202 0.0 4.0 0.00 0.00 0.00 96 1010.4
20260905225008 52 186 2.0 3.0 0.00 0.00 0.00 96 1010.4
20260905224503 52 194 1.0 1.0 0.00 0.00 0.00 96 1010.4
20260905224002 52 187 1.0 4.0 0.00 0.00 0.00 97 1010.5
20260905223500 52 216 2.0 2.0 0.00 0.00 0.00 97 1010.4
20260905222955 52 225 1.0 3.0 0.00 0.00 0.00 97 1010.4
20260905222455 52 194 2.0 2.0 0.00 0.00 0.00 97 1010.7
20260905221951 52 204 2.0 3.0 0.00 0.00 0.00 97 1010.5
20260905221447 52 287 2.0 4.0 0.00 0.00 0.00 97 1010.5
20260905220943 52 188 0.0 1.0 0.00 0.00 0.00 97 1010.6
20260905220439 52 177 0.0 7.0 0.00 0.00 0.00 97 1010.6
20260905215938 52 205 1.0 2.0 0.00 0.00 0.00 97 1010.5
20260905215433 52 167 0.0 4.0 0.00 0.00 0.00 97 1010.5
20260905214930 52 247 0.0 2.0 0.00 0.00 0.00 97 1010.5
20260905214426 52 172 0.0 1.0 0.00 0.00 0.00 97 1010.5
20260905213925 52 171 0.0 1.0 0.00 0.00 0.00 96 1010.5
20260905213422 52 185 0.0 1.0 0.00 0.00 0.00 96 1010.6
20260905212917 52 255 0.0 1.0 0.00 0.00 0.00 96 1010.4
20260905212412 52 185 0.0 1.0 0.00 0.00 0.00 96 1010.8
20260905211910 52 172 1.0 3.0 0.00 0.00 0.00 96 1010.6
20260905211406 52 189 2.0 3.0 0.00 0.00 0.00 96 1010.6
20260905210903 52 182 0.0 2.0 0.00 0.00 0.00 96 1010.5
20260905210402 52 259 4.0 4.0 0.00 0.00 0.00 96 1010.5
20260905205902 53 173 2.0 3.0 0.00 0.50 0.50 96 1010.5
20260905205357 53 190 2.0 2.0 0.00 0.50 0.50 96 1010.7
20260905204855 53 215 0.0 3.0 0.00 0.50 0.50 96 1010.7
20260905204352 53 164 1.0 2.0 0.00 0.50 0.50 96 1010.7
20260905203850 53 236 1.0 3.0 0.00 0.50 0.50 96 1010.6
20260905203346 53 180 0.0 1.0 0.00 0.50 0.50 95 1010.6
20260905202842 53 184 1.0 3.0 0.00 0.50 0.50 95 1010.8
20260905202337 53 175 1.0 2.0 0.00 0.50 0.50 95 1010.7
20260905201833 53 203 1.0 3.0 0.00 0.50 0.50 95 1010.6
20260905201328 53 209 1.0 2.0 0.00 0.50 0.50 95 1010.4
20260905200828 53 171 2.0 2.0 0.00 0.50 0.50 95 1010.5
20260905200325 53 193 0.0 1.0 0.00 0.50 0.50 95 1010.5
20260905195822 53 190 1.0 2.0 0.00 0.50 0.50 95 1010.6
20260905195317 53 297 1.0 7.0 0.00 0.50 0.50 95 1010.6
20260905194813 53 179 2.0 2.0 0.00 0.50 0.50 95 1010.8
20260905194313 53 198 2.0 3.0 0.00 0.50 0.50 95 1010.6
20260905193812 53 165 0.0 3.0 0.00 0.50 0.50 95 1010.6
20260905193307 53 213 1.0 3.0 0.00 0.50 0.50 95 1010.7
20260905192802 53 227 2.0 2.0 0.00 0.50 0.50 95 1010.5
20260905192258 53 184 0.0 4.0 0.00 0.50 0.50 95 1010.5
20260905191757 53 250 2.0 3.0 0.00 0.50 0.50 95 1010.5
20260905191256 53 203 2.0 3.0 0.00 0.50 0.50 95 1010.6
20260905190755 53 232 1.0 4.0 0.00 0.50 0.50 95 1010.5
20260905190254 53 169 2.0 3.0 0.00 0.50 0.50 95 1010.6
20260905185753 53 185 1.0 4.0 0.00 0.50 0.50 95 1010.5
20260905185248 53 209 1.0 2.0 0.00 0.50 0.50 95 1010.8
20260905184748 54 174 1.0 2.0 0.00 0.50 0.50 95 1010.6
20260905184247 54 204 1.0 4.0 0.00 0.50 0.50 95 1010.7
20260905183746 54 217 2.0 2.0 0.00 0.50 0.50 95 1010.7
20260905183242 54 179 0.0 1.0 0.00 0.50 0.50 95 1010.8
20260905182742 54 160 0.0 2.0 0.00 0.50 0.50 95 1010.8
20260905182241 54 184 1.0 2.0 0.00 0.50 0.50 95 1010.7
20260905181737 54 184 0.0 1.0 0.00 0.50 0.50 94 1010.6
20260905181236 54 175 0.0 0.0 0.00 0.50 0.50 94 1010.5
20260905180731 54 183 2.0 4.0 0.00 0.50 0.50 94 1010.6
20260905180226 55 166 0.0 2.0 0.00 0.50 0.50 94 1010.5
20260905175726 55 182 0.0 1.0 0.00 0.50 0.50 93 1010.5
20260905175221 55 176 1.0 4.0 0.00 0.50 0.50 93 1010.6
20260905174716 55 207 4.0 7.0 0.00 0.50 0.50 93 1010.6
20260905174212 55 236 2.0 3.0 0.00 0.50 0.50 94 1010.6
20260905173708 55 193 1.0 2.0 0.00 0.50 0.50 94 1010.3
20260905173203 55 189 2.0 2.0 0.00 0.50 0.50 94 1010.5
20260905172703 56 180 1.0 3.0 0.00 0.50 0.50 94 1010.5
20260905172157 56 190 2.0 4.0 0.00 0.50 0.50 93 1010.4
20260905171653 56 173 0.0 3.0 0.00 0.50 0.50 93 1010.5
20260905171149 56 174 1.0 4.0 0.00 0.50 0.50 92 1010.4
20260905170646 56 204 2.0 3.0 0.00 0.50 0.50 92 1010.3
20260905170141 56 192 1.0 1.0 0.00 0.50 0.50 91 1010.2
20260905165640 57 290 3.0 3.0 0.00 0.50 0.50 91 1010.2
20260905165136 57 197 2.0 6.0 0.00 0.50 0.50 90 1010.1
20260905164631 57 173 0.0 4.0 0.00 0.50 0.50 90 1010.0
20260905164130 57 223 5.0 6.0 0.00 0.50 0.50 90 1009.9
20260905163626 57 178 1.0 6.0 0.00 0.50 0.50 90 1010.1
20260905163122 57 230 2.0 6.0 0.00 0.50 0.50 90 1010.1
20260905162618 57 183 3.0 4.0 0.00 0.50 0.50 91 1010.0
20260905162117 58 178 0.0 3.0 0.00 0.50 0.50 91 1010.1
20260905161617 58 189 2.0 4.0 0.00 0.50 0.50 91 1009.9
20260905161115 58 184 2.0 3.0 0.00 0.50 0.50 90 1010.2
20260905160614 58 197 2.0 2.0 0.00 0.50 0.50 90 1010.2
20260905160109 58 139 2.0 3.0 0.00 0.50 0.50 90 1010.2
20260905155604 58 163 0.0 2.0 0.00 0.50 0.50 90 1009.9
20260905155102 59 206 1.0 2.0 0.00 0.50 0.50 90 1009.8
20260905154557 59 250 2.0 4.0 0.00 0.50 0.50 90 1009.8
20260905154052 59 226 3.0 4.0 0.00 0.50 0.50 90 1009.6
20260905153548 59 188 0.0 3.0 0.00 0.50 0.50 90 1009.9
20260905153048 59 207 2.0 3.0 0.07 0.50 0.50 89 1009.6
20260905152543 59 161 1.0 6.0 0.07 0.50 0.50 88 1009.8
20260905152038 59 146 5.0 10.0 0.00 0.49 0.49 87 1009.7
20260905151533 60 228 4.0 4.0 0.05 0.49 0.49 88 1009.3
20260905151028 60 173 0.0 2.0 0.05 0.49 0.49 88 1009.5
20260905150523 60 274 3.0 4.0 0.00 0.48 0.48 87 1009.4
20260905150021 60 168 1.0 7.0 0.00 0.48 0.48 85 1009.4
20260905145515 61 181 2.0 4.0 0.00 0.48 0.48 85 1009.3
20260905145014 61 173 0.0 3.0 0.00 0.48 0.48 84 1009.3
20260905144510 62 300 4.0 6.0 0.00 0.48 0.48 82 1009.2
20260905144009 63 226 1.0 3.0 0.00 0.48 0.48 81 1009.1
20260905143508 63 153 0.0 6.0 0.00 0.48 0.48 82 1009.0
20260905143003 62 162 1.0 6.0 0.00 0.48 0.48 84 1009.0
20260905142501 61 183 0.0 3.0 0.00 0.48 0.48 85 1009.1
20260905141957 62 236 2.0 9.0 0.00 0.48 0.48 83 1009.1
20260905141451 62 176 1.0 4.0 0.00 0.48 0.48 85 1008.8
20260905140948 60 191 1.0 7.0 0.00 0.48 0.48 88 1008.9
20260905140443 59 148 1.0 4.0 0.00 0.48 0.48 90 1008.9
20260905135941 58 194 0.0 2.0 0.00 0.48 0.48 92 1009.2
20260905135437 58 172 1.0 9.0 0.00 0.48 0.48 89 1009.1
20260905134932 59 76 2.0 3.0 0.00 0.48 0.48 89 1009.2
20260905134432 60 184 3.0 4.0 0.00 0.48 0.48 88 1008.9
20260905133926 59 162 1.0 4.0 0.00 0.48 0.48 91 1008.6
20260905133420 58 148 3.0 4.0 0.00 0.48 0.48 91 1008.7
20260905132920 58 210 4.0 6.0 0.00 0.48 0.48 92 1008.5
20260905132415 57 143 2.0 6.0 0.07 0.48 0.48 93 1008.4
20260905131910 56 119 0.0 7.0 0.12 0.48 0.48 92 1008.7
20260905131407 56 263 5.0 7.0 0.05 0.47 0.47 91 1008.7
20260905130906 56 194 1.0 9.0 0.00 0.46 0.46 91 1008.5
20260905130405 57 269 3.0 6.0 0.12 0.46 0.46 90 1008.8
20260905125900 57 222 4.0 9.0 0.24 0.46 0.46 90 1008.8
20260905125355 58 29 5.0 15.0 0.19 0.44 0.44 90 1008.9
20260905124851 59 18 4.0 6.0 0.00 0.41 0.41 90 1008.6
20260905124348 59 167 1.0 7.0 0.07 0.41 0.41 91 1008.3
20260905123847 59 163 1.0 8.0 0.07 0.41 0.41 89 1008.2
20260905123344 59 45 1.0 4.0 0.12 0.40 0.40 88 1008.4
20260905122843 60 151 2.0 4.0 0.17 0.40 0.40 84 1008.6
20260905122343 62 212 2.0 6.0 0.05 0.38 0.38 81 1008.4
20260905121838 62 291 4.0 9.0 0.00 0.37 0.37 78 1008.3
20260905121335 63 226 3.0 17.0 0.00 0.37 0.37 77 1008.0
20260905120833 64 235 4.0 10.0 0.00 0.37 0.37 77 1007.9
20260905120328 64 228 5.0 7.0 0.00 0.37 0.37 78 1007.8
20260905115824 63 248 4.0 8.0 0.00 0.37 0.37 78 1007.8
20260905115323 63 250 8.0 10.0 0.00 0.37 0.37 79 1007.9
20260905114823 63 256 8.0 13.0 0.00 0.37 0.37 78 1007.6
20260905114322 64 257 8.0 11.0 0.00 0.37 0.37 75 1007.5
20260905113821 65 204 4.0 10.0 0.00 0.37 0.37 74 1007.2
20260905113317 65 221 4.0 10.0 0.00 0.37 0.37 75 1007.3
20260905112813 64 245 3.0 8.0 0.00 0.37 0.37 76 1007.2
20260905112307 63 139 3.0 8.0 0.00 0.37 0.37 79 1007.1
20260905111802 62 131 3.0 9.0 0.00 0.37 0.37 82 1007.3
20260905111256 62 220 2.0 4.0 0.00 0.37 0.37 82 1007.5
20260905110756 62 221 5.0 9.0 0.00 0.37 0.37 82 1007.2
20260905110250 61 215 4.0 7.0 0.00 0.37 0.37 84 1007.2
20260905105746 60 270 6.0 13.0 0.00 0.37 0.37 86 1007.4
20260905105244 61 227 3.0 9.0 0.00 0.37 0.37 84 1007.4
20260905104739 63 112 9.0 11.0 0.00 0.37 0.37 78 1007.4
20260905104236 64 180 2.0 8.0 0.00 0.37 0.37 75 1007.1
20260905103736 62 219 5.0 8.0 0.00 0.37 0.37 76 1007.2
20260905103232 62 240 4.0 9.0 0.00 0.37 0.37 77 1007.2
20260905102727 62 136 2.0 8.0 0.00 0.37 0.37 75 1007.2
20260905102223 62 185 3.0 9.0 0.00 0.37 0.37 76 1007.2
20260905101722 62 213 5.0 6.0 0.00 0.37 0.37 77 1007.0
20260905101221 62 199 2.0 6.0 0.00 0.37 0.37 79 1006.9
20260905100717 62 190 2.0 8.0 0.00 0.37 0.37 79 1006.9
20260905100212 63 156 2.0 11.0 0.00 0.37 0.37 74 1007.1
20260905095711 63 220 5.0 10.0 0.00 0.37 0.37 73 1006.7
20260905095206 63 157 2.0 9.0 0.00 0.37 0.37 74 1006.8
20260905094707 63 187 3.0 7.0 0.00 0.37 0.37 75 1007.0
20260905094206 62 156 3.0 9.0 0.00 0.37 0.37 75 1006.7
20260905093701 63 159 2.0 9.0 0.00 0.37 0.37 75 1006.6
20260905093157 63 165 2.0 4.0 0.00 0.37 0.37 74 1006.6
20260905092652 64 182 2.0 7.0 0.00 0.37 0.37 73 1006.6
20260905092148 64 235 6.0 11.0 0.00 0.37 0.37 72 1006.3
20260905091647 63 226 12.0 18.0 0.00 0.37 0.37 73 1006.3
20260905091147 64 241 5.0 10.0 0.00 0.37 0.37 74 1006.3
20260905090642 63 202 4.0 16.0 0.00 0.37 0.37 74 1006.2
20260905090138 62 171 2.0 16.0 0.00 0.37 0.37 76 1006.3
20260905085636 62 168 2.0 9.0 0.00 0.37 0.37 77 1006.2
20260905085131 62 216 2.0 9.0 0.00 0.37 0.37 78 1006.2
20260905084631 62 234 3.0 6.0 0.00 0.37 0.37 79 1006.2
20260905084126 61 194 2.0 8.0 0.00 0.37 0.37 80 1006.2
20260905083621 61 234 5.0 8.0 0.00 0.37 0.37 79 1006.2
20260905083117 61 237 5.0 8.0 0.00 0.37 0.37 80 1006.2
20260905082618 61 237 6.0 15.0 0.00 0.37 0.37 77 1006.2
20260905082113 62 243 5.0 7.0 0.00 0.37 0.37 79 1006.1
20260905081608 62 241 6.0 14.0 0.00 0.37 0.37 77 1005.9
20260905081103 63 150 3.0 11.0 0.00 0.37 0.37 76 1005.9
20260905080602 62 245 6.0 9.0 0.00 0.37 0.37 78 1005.6
20260905080057 63 211 1.0 6.0 0.00 0.37 0.37 78 1005.8
20260905075556 62 181 2.0 14.0 0.00 0.37 0.37 79 1005.7
20260905075056 61 193 4.0 8.0 0.00 0.37 0.37 80 1005.5
20260905074555 60 189 5.0 10.0 0.00 0.37 0.37 81 1005.5
20260905074051 60 176 3.0 10.0 0.00 0.37 0.37 81 1005.4
20260905073547 60 170 1.0 6.0 0.00 0.37 0.37 82 1005.4
20260905073042 60 232 5.0 8.0 0.00 0.37 0.37 80 1005.2
20260905072542 61 211 2.0 8.0 0.00 0.37 0.37 81 1005.1
20260905072037 61 235 4.0 16.0 0.00 0.37 0.37 80 1005.1
20260905071534 61 213 3.0 8.0 0.00 0.37 0.37 83 1004.9
20260905071034 60 20 4.0 8.0 0.00 0.37 0.37 85 1004.9
20260905070529 60 334 3.0 9.0 0.00 0.37 0.37 87 1005.0
20260905070025 60 209 1.0 10.0 0.00 0.37 0.37 87 1004.8
20260905065522 59 165 2.0 16.0 0.00 0.37 0.37 87 1004.8
20260905065018 59 183 3.0 7.0 0.00 0.37 0.37 88 1004.6
20260905064513 59 247 8.0 10.0 0.00 0.37 0.37 88 1004.4
20260905064009 59 153 1.0 6.0 0.00 0.37 0.37 90 1004.6
20260905063508 59 106 2.0 10.0 0.00 0.37 0.37 90 1004.2
20260905063004 59 249 5.0 10.0 0.00 0.37 0.37 90 1004.2
20260905062504 59 255 7.0 10.0 0.00 0.37 0.37 91 1004.0
20260905061959 59 174 4.0 6.0 0.00 0.37 0.37 93 1004.1
20260905061453 59 230 3.0 4.0 0.00 0.37 0.37 93 1003.8
20260905060952 59 138 0.0 3.0 0.00 0.37 0.37 94 1003.7
20260905060449 59 142 3.0 8.0 0.00 0.37 0.37 94 1003.7
20260905055949 59 171 1.0 7.0 0.00 0.37 0.37 94 1003.6
20260905055448 59 188 4.0 7.0 0.00 0.37 0.37 94 1003.4
20260905054949 59 131 1.0 6.0 0.00 0.37 0.37 94 1003.3
20260905054444 59 214 4.0 8.0 0.00 0.37 0.37 94 1003.2
20260905053944 59 227 1.0 8.0 0.00 0.37 0.37 94 1003.0
20260905053439 59 164 2.0 4.0 0.00 0.37 0.37 94 1003.0
20260905052935 59 170 5.0 6.0 0.00 0.37 0.37 94 1002.9
20260905052434 59 233 3.0 9.0 0.00 0.37 0.37 95 1002.9
20260905051934 59 181 2.0 6.0 0.00 0.37 0.37 95 1002.7
20260905051430 59 245 5.0 10.0 0.00 0.37 0.37 95 1002.7
20260905050927 59 256 4.0 11.0 0.00 0.37 0.37 95 1002.7
20260905050423 59 200 1.0 9.0 0.00 0.37 0.37 96 1002.5
20260905045918 59 167 1.0 4.0 0.00 0.37 0.37 96 1002.2
20260905045414 59 196 3.0 6.0 0.00 0.37 0.37 96 1002.2
20260905044909 59 176 1.0 9.0 0.00 0.37 0.37 96 1002.2
20260905044404 59 186 2.0 6.0 0.00 0.37 0.37 97 1002.2
20260905043902 59 161 4.0 7.0 0.00 0.37 0.37 97 1002.1
20260905043357 59 235 3.0 4.0 0.00 0.37 0.37 97 1002.1
20260905042857 59 216 4.0 6.0 0.00 0.37 0.37 97 1001.9
20260905042352 59 198 2.0 13.0 0.00 0.37 0.37 97 1002.0
20260905041847 59 204 3.0 6.0 0.00 0.37 0.37 97 1002.1
20260905041343 58 190 1.0 3.0 0.07 0.37 0.37 97 1002.1
20260905040837 58 172 0.0 1.0 0.07 0.37 0.37 97 1001.7
20260905040336 58 183 1.0 2.0 0.24 0.36 0.36 97 1001.7
20260905035836 58 195 2.0 3.0 0.35 0.35 0.35 97 1001.8
20260905035331 58 167 0.0 3.0 0.54 0.32 0.32 96 1001.9
20260905034828 59 175 0.0 7.0 1.32 0.29 0.29 96 1001.8
20260905034323 59 192 0.0 2.0 0.90 0.21 0.21 95 1002.0
20260905033822 59 192 1.0 2.0 0.00 0.06 0.06 95 1001.8
20260905033317 59 179 0.0 1.0 0.00 0.06 0.06 94 1001.6
20260905032817 59 197 0.0 1.0 0.05 0.06 0.06 94 1001.6
20260905032312 59 169 1.0 1.0 0.05 0.06 0.06 92 1001.5
20260905031807 60 209 2.0 2.0 0.00 0.05 0.05 91 1001.8
20260905031303 60 198 1.0 3.0 0.00 0.05 0.05 91 1001.6
20260905030758 60 212 1.0 6.0 0.00 0.05 0.05 91 1002.0
20260905030253 59 208 4.0 4.0 0.00 0.05 0.05 91 1002.0
20260905025748 59 177 0.0 2.0 0.00 0.05 0.05 91 1001.9
20260905025243 59 201 1.0 2.0 0.00 0.05 0.05 91 1002.0
20260905024739 59 178 0.0 1.0 0.00 0.05 0.05 91 1001.8
20260905024235 59 218 3.0 6.0 0.00 0.05 0.05 91 1002.1
20260905023734 59 161 1.0 4.0 0.00 0.05 0.05 92 1002.0
20260905023230 59 176 1.0 4.0 0.00 0.05 0.05 92 1002.0
20260905022729 59 181 2.0 2.0 0.00 0.05 0.05 92 1001.9
20260905022225 59 184 0.0 3.0 0.00 0.05 0.05 91 1001.8
20260905021724 60 209 2.0 3.0 0.00 0.05 0.05 91 1001.8
20260905021220 60 181 1.0 3.0 0.00 0.05 0.05 92 1002.0
20260905020714 60 200 0.0 3.0 0.00 0.05 0.05 91 1002.1
20260905020210 60 211 5.0 7.0 0.00 0.05 0.05 91 1002.0
20260905015709 60 183 0.0 1.0 0.00 0.05 0.05 90 1001.8
20260905015208 60 178 0.0 3.0 0.00 0.05 0.05 89 1001.6
20260905014707 60 177 1.0 2.0 0.00 0.05 0.05 88 1001.8